User: anonymous   Login
Location: Bergnershof
(48.9468°N, 10.9431°E)
Time: 01:42:45
(UTC+00:00)
Language:

Cosmos 2154 Rocket - Orbit

View from above orbital plane
View from above orbital plane
View from above satellite
View from above satellite

Ground track
Ground track

The orbit data is extracted from the following two-line orbital elements,

1 21667U 91059B   21136.74024531  .00000015  00000-0 -41717-6 0  9998
2 21667  82.9087  24.5482 0019816 226.7341 194.2578 13.75105393491897
Epoch (UTC): 16 May 2021 17:45:57
Eccentricity: 0.0019816
inclination: 82.9087°
perigee height: 967 km
apogee height: 996 km
right ascension of ascending node: 24.5482°
argument of perigee: 226.7341°
revolutions per day: 13.75105393
mean anomaly at epoch: 194.2578°
orbit number at epoch: 49189

The dashed part of the orbit path shows where the satellite is in the earth's shadow,  

DLR